This is the latest recevied weather packets stored in our database for station/object N8GD. If no packets are shown the sender has not sent any weather packets the latest 1 day(s).
| Time | Temp. | Humidity | Pressure | Rain* | Wind** | Luminosity | Snow |
|---|---|---|---|---|---|---|---|
| 1778060229 | 13.33° C | 95% | 1004.8 hPa | 2.29 mm | - | - | - |
| 1778059364 | 13.33° C | 95% | 1004.8 hPa | 2.54 mm | - | - | - |
| 1778058462 | 13.33° C | 95% | 1004.9 hPa | 3.3 mm | - | - | - |
| 1778056228 | 13.33° C | 95% | 1005.4 hPa | 2.79 mm | - | - | - |
| 1778055708 | 13.33° C | 95% | 1005.4 hPa | 2.03 mm | - | - | - |
| 1778055328 | 13.33° C | 94% | 1005.4 hPa | 2.03 mm | - | - | - |
| 1778054429 | 13.33° C | 94% | 1005.2 hPa | 1.02 mm | - | - | - |
| 1778052306 | 13.33° C | 94% | 1004.9 hPa | 0.25 mm | - | - | - |
| 1778051406 | 13.33° C | 93% | 1005.1 hPa | 0.25 mm | - | - | - |
| 1778050302 | 13.33° C | 93% | 1005.4 hPa | 0.76 mm | - | - | - |
| 1778048505 | 13.33° C | 93% | 1005.9 hPa | 1.02 mm | - | - | - |
| 1778047229 | 13.33° C | 92% | 1006.3 hPa | 1.02 mm | - | - | - |
| 1778046707 | 13.33° C | 92% | 1006.4 hPa | 0.76 mm | - | - | - |
| 1778046328 | 13.89° C | 92% | 1006.4 hPa | 0.76 mm | - | - | - |
| 1778043162 | 14.44° C | 92% | 1007.3 hPa | 1.02 mm | - | - | - |
| 1778043105 | 14.44° C | 92% | 1007.3 hPa | 1.27 mm | - | - | - |
| 1778042262 | 14.44° C | 91% | 1007.5 hPa | 1.02 mm | - | - | - |
| 1778041364 | 15° C | 91% | 1007.5 hPa | 0.76 mm | - | - | - |
| 1778041305 | 15° C | 91% | 1007.5 hPa | 0.51 mm | - | - | - |
| 1778039564 | 15° C | 89% | 1007.6 hPa | 0.25 mm | - | - | - |
| 1778039506 | 15° C | 89% | 1007.6 hPa | 0 mm | - | - | - |
| 1778037762 | 16.11° C | 84% | 1007.3 hPa | 0 mm | - | - | - |
| 1778035963 | 16.67° C | 80% | 1007.4 hPa | 0 mm | - | - | - |
| 1778035904 | 16.67° C | 80% | 1007.4 hPa | 0 mm | - | - | - |
| 1778035063 | 16.67° C | 78% | 1007 hPa | 0 mm | - | - | - |
* Rain latest hour (hover to see other rain measurements)
** Current wind speed in m/s (hover to see current wind gust speed)